Regional Weather Roundup
Issued by NWS

Home | Current Version | Previous Version | Text Only | Print | Product List | Glossary On
Versions: 1 2 3 4 5 6 7 8 9 10 11 12 13 14 15 16 17 18 19 20 21 22 23 24 25 26 27 28
000
ASCA42 TJSJ 300510
RWRPR
PUERTO RICO/U.S. VIRGIN ISLANDS HOURLY WEATHER ROUNDUP
NATIONAL WEATHER SERVICE SAN JUAN PR
100 AM AST THU MAR 30 2017

PRZ001>002-007>008-010-300600-
PUERTO RICO

CITY           SKY/WX    TMP DP  RH WIND       PRES   REMARKS
SAN JUAN LMM   PTCLDY    79  72  78 NE7       29.97F
AGUADILLA      PTCLDY    73  68  83 E7        29.98F
CEIBA          PTCLDY    75  72  88 N7        29.99F
$$

VIZ001>002-300600-
U.S. VIRGIN ISLANDS

CITY           SKY/WX    TMP DP  RH WIND       PRES   REMARKS
CHARLOTTE AMA  CLEAR     75  70  83 N12G18    29.95F
CHRISTIANSTED  MOCLDY    77  70  78 N7        29.96F
$$

HOURLY WEATHER ROUNDUP FOR THE NEWS MEDIA

CITY           SKY/WX    TMP DP  RH WIND       PRES   REMARKS
ORLANDO        CLEAR     72  58  61 S5        30.03F
NEW YORK       PTCLDY    42  22  44 N15G24    30.23F
NEWARK         CLEAR     42  23  46 N15       30.24S
CHICAGO        LGT RAIN  45  38  76 E17G25    30.00F
HARTFORD       CLEAR     36  23  59 N6        30.13F WCI  31
BOSTON         PTCLDY    37  24  59 NW16G23   30.15F WCI  28
DALLAS         PTCLDY    59  46  62 NW13G22   29.85S
PHILADELPHIA   PTCLDY    46  25  43 N18       30.22F
LOS ANGELES    CLEAR     63  54  72 CALM      30.00F
WASHINGTON DC  CLEAR     48  32  53 NE6       30.19S



USA.gov is the U.S. government's official web portal to all federal, state and local government web resources and services.